Location: Lombard
(41.8800°N, 88.0078°W)
Time: 06:46:51
(UTC-06:00)

BlueWalker 3 - Visible Passes

Search period start: 21 January 2026 00:00
Search period end: 31 January 2026 00:00
Orbit: 451 x 463 km, 53.2° (Epoch: 20 January)

Date Brightness Start Highest point End Pass type
(mag) Time Alt. Az. Time Alt. Az. Time Alt. Az.
21 Jan 2.9 17:35:12 10° SSW 17:38:18 28° SE 17:40:59 12° ENE visible
21 Jan 3.4 19:12:19 10° W 19:14:44 31° WNW 19:14:44 31° WNW visible
22 Jan 2.4 18:36:44 10° WSW 18:40:12 48° NNW 18:40:58 40° N visible
23 Jan 2.0 18:01:10 10° WSW 18:04:42 62° NW 18:07:06 19° NE visible
23 Jan 4.8 19:40:17 10° WNW 19:40:51 12° NW 19:40:51 12° NW visible
24 Jan 1.8 17:25:38 10° SW 17:29:11 81° NW 17:32:46 10° NE visible
24 Jan 3.9 19:04:28 10° WNW 19:06:54 19° NNW 19:06:54 19° NNW visible
25 Jan 3.6 18:28:39 10° WNW 18:31:29 22° NNW 18:32:53 17° NNE visible
26 Jan 3.4 17:52:48 10° W 17:55:50 25° NNW 17:58:49 10° NNE visible
26 Jan 4.8 19:32:27 10° NW 19:32:32 10° NNW 19:32:32 10° NNW visible
27 Jan 4.2 18:56:37 10° NW 18:58:24 14° N 18:58:24 14° N visible
28 Jan 4.0 18:20:42 10° NW 18:22:46 14° N 18:24:14 12° NNE visible
29 Jan 4.0 17:44:44 10° NW 17:46:59 15° NNW 17:49:12 10° NNE visible
29 Jan 4.6 19:23:31 10° NNW 19:23:45 11° NNW 19:23:45 11° NNW visible
30 Jan 4.0 18:47:50 10° NNW 18:49:32 14° N 18:49:32 14° N visible
